Location: Cedar Brake
(32.2526°N, 97.8459°W)
Time: 16:45:46
(UTC+00:00)

Gbstr 26 Del rocket - Pass Details

Date: 22 April 2026
Orbit: 490 x 1216 km, 51.8° (Epoch: 9 May)

Event Time Altitude Azimuth Distance (km) Brightness Sun altitude
Rises 02:53:41 0° 224° (SW) 3,549 7.1 -21.9°
Reaches altitude 10° 02:56:28 10° 225° (SW) 2,486 6.3 -22.4°
Maximum altitude 03:02:14 87° 314° (NW) 736 3.3 -23.4°
Enters shadow 03:04:52 27° 43° (NE) 1,285 4.5 -23.9°
